TimeSAST,TemperatureF,Dew PointF,Humidity,Sea Level PressureIn,VisibilityMPH,Wind Direction,Wind SpeedMPH,Gust SpeedMPH,PrecipitationIn,Events,Conditions,WindDirDegrees,DateUTC
12:00 AM,55.4,48.2,77,29.86,-9999.0,NNW,10.4,-,N/A,,Clear,330,2013-06-07 22:00:00
1:00 AM,57.2,46.4,67,29.86,-9999.0,NNW,10.4,-,N/A,,Clear,330,2013-06-07 23:00:00
2:00 AM,57,42,47,29.83,31,WSW,9.2,,,,,240,2013-06-08 00:00:00
2:00 AM,57.2,42.8,59,29.83,-9999.0,WSW,9.2,-,N/A,,Clear,250,2013-06-08 00:00:00
3:00 AM,55.4,41.0,58,29.80,-9999.0,West,5.8,-,N/A,,Clear,280,2013-06-08 01:00:00
4:00 AM,55.4,37.4,51,29.80,-9999.0,West,10.4,-,N/A,,Clear,270,2013-06-08 02:00:00
5:00 AM,54,36,38,29.77,12,NW,9.2,,,,,320,2013-06-08 03:00:00
5:00 AM,53.6,35.6,51,29.74,-9999.0,NW,9.2,-,N/A,,Clear,320,2013-06-08 03:00:00
7:00 AM,64.4,39.2,40,29.74,6.2,NW,16.1,-,N/A,,Scattered Clouds,310,2013-06-08 05:00:00
8:00 AM,61,42,39,29.79,12,SW,17.3,,,,Mostly Cloudy,230,2013-06-08 06:00:00
8:00 AM,60.8,44.6,55,29.77,-9999.0,SW,18.4,-,N/A,,Clear,220,2013-06-08 06:00:00
9:00 AM,55.4,51.8,88,29.86,3.1,WSW,16.1,-,N/A,Rain,Light Rain,250,2013-06-08 07:00:00
11:00 AM,55,50,78,29.89,12,WNW,16.1,,,,Partly Cloudy,300,2013-06-08 09:00:00
11:00 AM,55.4,50.0,82,29.89,6.2,WNW,17.3,-,N/A,,Mostly Cloudy,300,2013-06-08 09:00:00
12:00 PM,55.4,48.2,77,29.86,6.2,WNW,19.6,-,N/A,Rain,Light Rain,300,2013-06-08 10:00:00
1:00 PM,57.2,51.8,82,29.86,6.2,WNW,16.1,-,N/A,,Mostly Cloudy,290,2013-06-08 11:00:00
2:00 PM,60,49,59,29.85,12,West,27.6,,,,Mostly Cloudy,270,2013-06-08 12:00:00
2:00 PM,59.0,50.0,72,29.83,6.2,West,27.6,-,N/A,,Mostly Cloudy,270,2013-06-08 12:00:00
3:00 PM,60.8,46.4,59,29.83,6.2,West,27.6,-,N/A,,Mostly Cloudy,270,2013-06-08 13:00:00
4:00 PM,57.2,48.2,72,29.86,6.2,West,18.4,-,N/A,,Mostly Cloudy,270,2013-06-08 14:00:00
5:00 PM,53,50,84,29.90,4,WSW,26.5,,,Rain,Light Rain,250,2013-06-08 15:00:00
5:00 PM,53.6,50.0,88,29.89,3.7,West,27.6,-,N/A,Rain,Light Rain,260,2013-06-08 15:00:00
6:00 PM,51.8,46.4,82,29.95,4.3,WSW,27.6,-,N/A,Rain,Light Rain,250,2013-06-08 16:00:00
7:00 PM,51.8,48.2,88,30.01,3.7,West,18.4,-,N/A,Rain,Light Rain,270,2013-06-08 17:00:00
8:00 PM,50,47,85,30.05,12,West,16.1,,,,Partly Cloudy,280,2013-06-08 18:00:00
8:00 PM,50.0,46.4,87,30.04,6.2,West,16.1,-,N/A,,Scattered Clouds,280,2013-06-08 18:00:00
9:00 PM,50.0,46.4,87,30.06,6.2,WNW,16.1,-,N/A,Rain,Light Rain,290,2013-06-08 19:00:00
10:00 PM,50.0,48.2,94,30.12,6.2,SSW,17.3,-,N/A,Rain,Rain,210,2013-06-08 20:00:00
11:00 PM,50.0,46.4,87,30.18,6.2,SSW,15.0,-,N/A,Rain,Light Rain,210,2013-06-08 21:00:00